Miles City, MT

7:47 AM MDT on March 27, 2017 (GMT -0600)
Wiley

Weather History for KMLS - June, 2014

Change the Weather History Date:

Tuesday, June 17, 2014

  Actual Average Record
Temperature  
Mean Temperature 68 °F 66 °F  
Max Temperature 77 °F 79 °F 102 °F (1988)
Min Temperature 58 °F 53 °F 41 °F (2004)
Degree Days  
Heating Degree Days 0 2  
Month to date heating degree days 81 68  
Since 1 June heating degree days 81 68  
Since 1 July heating degree days 8088 7617  
Cooling Degree Days 3 4  
Month to date cooling degree days 6 42  
Year to date cooling degree days 40 62  
Since 1 June cooling degree days 6 42  
Growing Degree Days 18 (Base 50)    
Moisture  
Dew Point 57 °F    
Average Humidity 63    
Maximum Humidity 87    
Minimum Humidity 39    
Precipitation  
Precipitation 0.46 in 0.09 in 1.92 in (1944)
Month to date precipitation 1.41 1.53  
Year to date precipitation 6.80 6.23  
Sea Level Pressure  
Sea Level Pressure 29.66 in    
Wind  
Wind Speed 12 mph (North)    
Max Wind Speed 24 mph    
Max Gust Speed 29 mph    
Visibility 9 miles    
Events Rain , Thunderstorm    
T = Trace of Precipitation, MM = Missing Value Source: NWS Daily Summary

Daily Weather History Graph

Daily Weather History Graph

Search for Another Location

Airport or City:

Trip Planner

Search our weather history database for the weather conditions in past years. The results will help you decide how hot, cold, wet, or windy it might be!

Date:

Astronomy

Jun. 17, 2014 Rise Set
Actual Time 5:10 AM MDT 8:58 PM MDT
Civil Twilight 4:31 AM MDT 9:37 PM MDT
Nautical Twilight 3:38 AM MDT 10:30 PM MDT
Astronomical Twilight 2:22 AM MDT 11:47 PM MDT
Moon No Moon Rise 10:44 AM MDT (6/17)
Length of Visible Light 17h 06m
Length of Day
15h 48m
Waning Gibbous, 73% of the Moon is Illuminated
Jun 17
Waning Gibbous
Jun 19
Last Quarter
Jun 27
New
Jul 5
First Quarter
Jul 12
Full

Hourly Weather History & Observations

Time (MDT) Temp. Dew Point Humidity Pressure Visibility Wind Dir Wind Speed Gust Speed Precip Events Conditions
12:53 AM 60.1 °F 54.0 °F 80% 29.61 in 10.0 mi NNE 10.4 mph - N/A   Clear
1:53 AM 60.1 °F 53.1 °F 78% 29.60 in 10.0 mi NE 12.7 mph - N/A   Clear
2:53 AM 60.1 °F 54.0 °F 80% 29.60 in 10.0 mi North 13.8 mph - N/A   Mostly Cloudy
3:53 AM 60.1 °F 55.0 °F 83% 29.57 in 10.0 mi NNE 3.5 mph - N/A Thunderstorm Overcast
4:12 AM 60.1 °F 55.0 °F 83% 29.65 in 10.0 mi NNW 9.2 mph - N/A Thunderstorm Overcast
4:36 AM 61.0 °F 55.9 °F 83% 29.65 in 10.0 mi NNW 4.6 mph - N/A   Overcast
4:46 AM 61.0 °F 55.9 °F 83% 29.65 in 10.0 mi NNW 5.8 mph - N/A   Overcast
4:53 AM 61.0 °F 55.9 °F 83% 29.60 in 10.0 mi NNW 5.8 mph - N/A   Overcast
5:03 AM 61.0 °F 55.9 °F 83% 29.64 in 10.0 mi NNW 4.6 mph - N/A   Overcast
5:53 AM 62.1 °F 57.9 °F 86% 29.59 in 10.0 mi NE 11.5 mph - N/A   Overcast
6:53 AM 64.9 °F 60.1 °F 84% 29.59 in 10.0 mi East 8.1 mph - N/A   Mostly Cloudy
7:41 AM 66.9 °F 61.0 °F 81% 29.63 in 10.0 mi SE 12.7 mph 24.2 mph N/A   Scattered Clouds
7:53 AM 68.0 °F 61.0 °F 78% 29.58 in 10.0 mi SE 15.0 mph - N/A   Clear
8:53 AM 69.1 °F 61.0 °F 75% 29.60 in 10.0 mi SSE 13.8 mph - N/A   Mostly Cloudy
9:22 AM 70.0 °F 61.0 °F 73% 29.65 in 10.0 mi SSE 15.0 mph - N/A   Mostly Cloudy
9:53 AM 68.0 °F 59.0 °F 73% 29.61 in 10.0 mi SSW 11.5 mph - N/A   Mostly Cloudy
10:11 AM 71.1 °F 60.1 °F 68% 29.64 in 10.0 mi SW 11.5 mph - N/A   Scattered Clouds
10:53 AM 73.0 °F 55.0 °F 53% 29.61 in 10.0 mi SW 11.5 mph - N/A   Partly Cloudy
11:53 AM 72.0 °F 54.0 °F 53% 29.62 in 10.0 mi WSW 13.8 mph 19.6 mph N/A   Clear
12:53 PM 73.9 °F 55.0 °F 52% 29.63 in 10.0 mi West 12.7 mph 19.6 mph N/A   Clear
1:53 PM 77.0 °F 50.0 °F 39% 29.61 in 10.0 mi WSW 15.0 mph - N/A   Clear
2:53 PM 75.0 °F 53.1 °F 46% 29.62 in 10.0 mi WNW 18.4 mph 28.8 mph N/A   Clear
3:53 PM 75.0 °F 53.1 °F 46% 29.66 in 10.0 mi NW 16.1 mph 21.9 mph N/A   Clear
4:53 PM 75.9 °F 51.1 °F 42% 29.66 in 10.0 mi NNW 11.5 mph - N/A   Clear
5:53 PM 75.9 °F 51.1 °F 42% 29.69 in 10.0 mi NNW 13.8 mph - N/A   Clear
6:53 PM 73.9 °F 57.0 °F 55% 29.67 in 10.0 mi NNE 16.1 mph - N/A   Scattered Clouds
7:53 PM 70.0 °F 60.1 °F 71% 29.69 in 10.0 mi NE 10.4 mph - N/A   Partly Cloudy
8:53 PM 68.0 °F 59.0 °F 73% 29.70 in 10.0 mi NNE 10.4 mph - N/A   Scattered Clouds
9:29 PM 68.0 °F 57.9 °F 70% 29.74 in 10.0 mi NNE 6.9 mph - N/A   Mostly Cloudy
9:36 PM 64.9 °F 60.1 °F 84% 29.76 in 2.5 mi East 9.2 mph 18.4 mph 0.18 in Rain , Thunderstorm Rain
9:41 PM 62.1 °F 60.1 °F 93% 29.75 in 1.5 mi North 13.8 mph 18.4 mph 0.27 in Rain , Thunderstorm Heavy Thunderstorms and Rain
9:49 PM 60.8 °F 59.0 °F 94% 29.75 in 3.0 mi NNW 10.4 mph - 0.31 in Rain , Thunderstorm Thunderstorms and Rain
9:53 PM 60.1 °F 57.9 °F 93% 29.72 in 4.0 mi North 10.4 mph - 0.32 in Rain , Thunderstorm Thunderstorms and Rain
10:02 PM 60.1 °F 59.0 °F 96% 29.75 in 4.0 mi NNE 9.2 mph - 0.06 in Rain , Thunderstorm Heavy Thunderstorms and Rain
10:35 PM 60.1 °F 59.0 °F 96% 29.69 in 8.0 mi NE 23.0 mph - 0.13 in Rain , Thunderstorm Rain
10:50 PM 62.6 °F 60.8 °F 94% 29.71 in 10.0 mi ENE 10.4 mph - 0.14 in Rain , Thunderstorm Light Rain
10:53 PM 61.0 °F 60.1 °F 97% 29.66 in 10.0 mi ENE 12.7 mph - 0.14 in Rain , Thunderstorm Light Rain
11:00 PM 62.1 °F 61.0 °F 96% 29.71 in 10.0 mi East 5.8 mph - 0.00 in   Mostly Cloudy
11:12 PM 62.1 °F 61.0 °F 96% 29.73 in 10.0 mi Variable 3.5 mph - 0.00 in   Mostly Cloudy
11:20 PM 62.1 °F 61.0 °F 96% 29.75 in 10.0 mi SW 8.1 mph - 0.00 in   Mostly Cloudy
11:43 PM 60.1 °F 57.9 °F 93% 29.75 in 10.0 mi West 4.6 mph - 0.00 in   Overcast
11:53 PM 60.1 °F 57.9 °F 93% 29.70 in 10.0 mi WSW 5.8 mph - 0.00 in   Overcast